Location: *
(31.2983°S, 151.4094°E)
Time: 05:10:34
(UTC+00:00)

CZ-3B R/B - Pass Details

Date: 25 August 2019
Orbit: 172 x 10364 km, 25.7° (Epoch: 19 September)

Event Time Altitude Azimuth Distance (km) Brightness Sun altitude
Exits shadow 18:43:10 25° 315° (NW) 1,883 3.9 -21.1°
Maximum altitude 18:46:51 54° 22° (NNE) 1,802 4.2 -20.3°
Drops below altitude 10° 19:07:50 10° 92° (E) 8,406 9.0 -15.8°
Sets 19:20:23 0° 94° (E) 11,580 10.2 -13.2°
